Volver al catálogo

STARLINK-31240

ActivoComunicacionesVLEO
NORAD 59041·PAYLOAD·🇺🇸 United States

Lanzado Feb 25, 2024 desde Cape Canaveral Space Force Station

Loading…

Próximos Pases (próximas 24 horas)

TLE

ActualizadoSource: CelesTrak SupGP

Época: Sep 15, 2026, 01:58 UTC

1 59041C 24038U   26258.08243056 -.00027229  00000+0 -98645-3 0  2583
2 59041  43.0044  34.2428 0001630 275.6369 323.8376 15.27584123    18

Sigue STARLINK-31240 en tiempo real con AllMySat

Download on the App Store